GFSWCAN_925_temp_114.txt.gz
Temp
1 1 1 2 2 3 3 3 3 2 3 3 2 2 2 2 2 2 3 2 3 4 6 5 5 6 6 6 6 7 7 6 8 7 8 8 8 10 8 9 8 9 10 10 11 10 10 13 14 12 12 13 11 11
1 1 1 1 2 2 2 2 2 2 3 3 2 2 2 2 2 2 3 2 2 2 5 3 4 4 5 6 6 6 6 5 7 7 8 8 8 8 9 7 8 8 7 8 10 12 13 12 10 10 11 11 11 12
1 0 1 1 1 2 1 1 1 2 2 2 2 2 2 2 2 2 2 1 1 1 3 4 5 5 4 4 5 5 6 7 5 4 5 5 5 8 8 9 7 8 9 7 7 8 7 6 7 9 8 9 9 11
1 1 0 1 1 1 2 1 2 2 2 2 2 2 2 2 2 1 2 1 1 2 2 6 5 4 5 4 4 4 6 6 6 4 5 6 6 9 8 7 6 6 5 6 7 7 5 4 4 5 6 6 6 8
0 0 1 1 0 1 1 2 2 1 2 2 2 2 2 1 2 2 2 1 2 4 3 5 5 6 5 5 5 4 5 6 5 4 4 5 8 8 8 7 6 5 4 5 6 4 4 3 3 3 3 2 3 6
0 0 0 0 1 1 1 1 2 1 1 2 2 1 2 2 2 1 2 1 2 2 3 4 6 6 5 5 5 5 5 5 4 3 4 6 8 7 6 8 5 4 3 2 3 3 2 2 2 2 2 1 0 0
0 0 0 0 0 1 1 2 1 0 1 2 1 1 1 1 1 3 4 2 1 2 2 3 6 6 5 5 5 4 4 3 4 4 5 7 8 7 7 7 8 4 2 2 1 2 2 1 1 1 2 1 0 2
0 0 0 0 0 -0 1 1 1 0 1 2 1 1 1 1 1 1 1 2 1 2 3 3 5 6 5 5 5 4 3 3 4 6 6 7 8 7 7 7 5 3 2 2 2 2 0 -0 0 0 1 2 2 2
0 0 0 -0 0 0 1 1 1 0 0 1 1 1 1 0 1 3 2 1 0 1 3 3 5 6 5 5 5 4 4 3 6 5 6 7 7 7 5 5 3 1 1 1 2 2 2 1 1 1 0 1 2 1
-0 -0 -0 0 0 0 1 1 1 0 1 1 1 0 1 0 1 2 1 2 2 1 2 3 7 6 6 5 5 5 4 6 5 7 7 6 7 2 1 1 1 0 0 1 1 0 -0 -1 -0 -1 -1 -2 -1 -1
-0 -0 -0 -0 0 1 1 1 0 0 1 1 0 2 2 2 2 2 3 3 3 3 3 4 6 6 6 6 5 5 6 5 6 7 7 7 6 1 1 0 0 -0 -0 -1 -1 -2 -2 -3 -3 -2 -2 -3 -3 -3
-0 -0 0 0 1 1 1 0 -0 0 1 1 2 1 1 2 2 3 4 4 4 6 6 4 4 5 7 7 6 5 5 6 6 7 6 6 1 -0 0 -1 -1 -1 -2 -2 -3 -3 -4 -5 -5 -5 -5 -6 -6 -7
-0 -0 1 1 1 1 1 1 1 1 1 1 2 2 2 3 4 4 4 5 6 6 5 4 4 5 5 5 5 5 6 6 7 6 6 2 0 -1 -1 -1 -2 -3 -4 -4 -5 -5 -6 -7 -9 -8 -8 -9 -8 -8
1 1 1 1 1 1 1 0 0 1 2 2 2 3 4 3 5 5 7 7 4 5 4 5 5 4 5 5 5 5 5 5 6 6 4 1 -1 -2 -2 -3 -3 -5 -6 -7 -8 -8 -9 -9 -10 -10 -11 -10 -10 -9
1 1 1 1 1 1 0 0 1 1 -0 2 3 4 3 3 2 2 3 3 2 3 5 5 5 5 5 5 5 6 6 5 4 3 -0 -1 -1 -2 -3 -4 -5 -6 -7 -8 -9 -10 -11 -11 -11 -11 -12 -11 -11 -11
1 0 1 1 1 0 -0 -0 -0 -0 -1 -0 0 2 2 3 2 2 2 1 0 1 3 3 5 5 6 6 6 4 5 5 1 0 -1 -2 -3 -4 -4 -5 -6 -7 -7 -8 -9 -9 -11 -11 -11 -12 -12 -12 -12 -12
1 1 0 0 0 0 -1 -1 -1 -0 -0 -1 -1 -2 -1 1 1 -1 -1 -1 -2 1 4 5 5 5 4 4 3 1 2 1 -1 -2 -2 -3 -4 -5 -5 -6 -7 -7 -8 -9 -10 -10 -11 -11 -11 -10 -10 -11 -11 -12
1 0 0 0 -0 -1 -1 -1 0 -0 -1 -1 -1 -3 -3 -4 -2 -2 -3 -2 -1 2 3 3 3 3 3 4 1 -1 -1 -2 -2 -2 -3 -5 -6 -7 -6 -6 -7 -7 -8 -9 -10 -10 -11 -10 -9 -9 -10 -11 -11 -11
1 0 0 -0 0 -0 -0 -1 0 -1 -2 -2 -3 -3 -3 -4 -4 -4 -3 -3 -3 -3 -1 -0 -0 -1 -2 -3 -2 -3 -2 -2 -3 -3 -5 -6 -7 -8 -8 -8 -8 -8 -9 -9 -8 -8 -9 -11 -10 -10 -10 -10 -10 -10
1 0 0 0 1 -0 -0 -0 -1 -0 -1 -2 -3 -3 -3 -4 -4 -4 -4 -3 -3 -3 -4 -3 -4 -4 -4 -4 -4 -4 -3 -3 -3 -4 -4 -5 -7 -8 -7 -7 -7 -9 -9 -9 -10 -10 -9 -10 -10 -11 -11 -11 -10 -11
1 0 -0 0 -1 -0 1 0 -1 -1 -2 -2 -3 -2 -3 -3 -4 -4 -3 -3 -4 -4 -4 -5 -5 -6 -6 -6 -6 -6 -6 -4 -4 -3 -3 -5 -6 -7 -7 -8 -8 -8 -8 -8 -8 -10 -10 -10 -11 -11 -11 -12 -12 -12
-1 0 -1 -0 1 0 0 -0 -0 -0 -1 -1 -1 -2 -2 -3 -3 -4 -4 -4 -5 -6 -5 -5 -5 -6 -6 -7 -8 -7 -7 -7 -7 -7 -7 -7 -6 -6 -7 -8 -7 -8 -8 -9 -9 -9 -10 -11 -11 -12 -12 -12 -12 -12
1 1 0 1 0 0 -1 -1 -0 -0 -1 -2 -1 -2 -3 -3 -4 -4 -5 -5 -5 -6 -7 -7 -8 -8 -8 -9 -10 -10 -9 -8 -7 -7 -8 -8 -8 -8 -8 -8 -8 -8 -8 -9 -10 -10 -10 -12 -12 -12 -12 -12 -12 -12
3 -2 -1 -1 1 -1 -1 -1 0 -0 -1 -1 -2 -3 -3 -3 -4 -4 -5 -6 -6 -6 -6 -8 -7 -7 -8 -9 -8 -9 -10 -9 -8 -9 -9 -8 -8 -9 -9 -9 -9 -10 -10 -10 -10 -10 -11 -11 -12 -12 -12 -12 -12 -12
3 -3 -2 -2 -2 -1 -2 -2 -2 -1 -2 -2 -3 -3 -4 -4 -4 -5 -5 -6 -6 -6 -7 -7 -7 -7 -6 -8 -9 -10 -11 -9 -8 -8 -10 -9 -9 -9 -9 -10 -10 -11 -11 -10 -10 -10 -11 -11 -12 -12 -12 -12 -12 -12
-2 -6 -2 -3 -2 -1 -1 -2 -2 -3 -3 -3 -4 -5 -5 -4 -4 -5 -5 -6 -6 -7 -8 -7 -7 -7 -8 -8 -8 -9 -10 -11 -10 -9 -11 -11 -11 -10 -9 -9 -9 -11 -12 -12 -11 -10 -11 -11 -11 -12 -12 -13 -14 -13
-3 -4 -5 -6 -3 -4 -4 -4 -4 -3 -3 -4 -4 -6 -4 -4 -4 -6 -7 -8 -7 -9 -9 -9 -8 -8 -9 -10 -11 -12 -12 -12 -11 -12 -13 -13 -14 -13 -12 -11 -12 -13 -14 -13 -12 -12 -11 -11 -11 -12 -12 -12 -13 -13
-5 -5 -5 -7 -7 -6 -6 -5 -4 -4 -4 -5 -5 -5 -4 -3 -5 -7 -7 -10 -10 -11 -11 -12 -11 -11 -11 -12 -12 -13 -13 -14 -14 -14 -14 -14 -15 -15 -15 -15 -15 -14 -14 -14 -14 -13 -13 -13 -12 -12 -12 -12 -13 -14
-7 -7 -7 -11 -9 -9 -9 -7 -7 -8 -8 -6 -6 -8 -9 -10 -11 -10 -11 -11 -11 -11 -11 -12 -14 -15 -15 -15 -15 -15 -14 -13 -12 -12 -12 -11 -12 -14 -16 -16 -16 -15 -15 -15 -14 -14 -14 -14 -14 -14 -14 -14 -15 -15
-8 -8 -9 -10 -10 -9 -10 -11 -10 -11 -10 -10 -9 -10 -10 -11 -13 -14 -12 -12 -11 -10 -11 -12 -14 -13 -13 -13 -14 -16 -15 -15 -15 -14 -12 -12 -13 -16 -17 -17 -17 -16 -16 -16 -15 -15 -15 -15 -15 -15 -15 -15 -15 -15
-9 -8 -9 -9 -10 -10 -11 -13 -14 -13 -12 -11 -11 -10 -10 -10 -12 -14 -13 -13 -14 -14 -14 -14 -15 -15 -14 -14 -13 -14 -15 -16 -16 -16 -16 -16 -17 -17 -17 -17 -17 -16 -17 -17 -16 -16 -16 -15 -15 -15 -15 -16 -17 -16
-9 -9 -9 -9 -10 -11 -12 -10 -10 -9 -10 -9 -10 -12 -12 -10 -10 -12 -14 -14 -14 -13 -13 -13 -13 -14 -15 -14 -14 -15 -15 -16 -16 -17 -17 -17 -18 -17 -17 -17 -17 -17 -17 -17 -17 -17 -17 -16 -16 -16 -17 -17 -18 -19
-11 -10 -10 -9 -10 -10 -10 -9 -8 -9 -9 -9 -10 -10 -10 -9 -9 -11 -14 -14 -13 -12 -13 -14 -15 -14 -15 -15 -16 -16 -17 -17 -17 -18 -18 -18 -18 -17 -17 -17 -17 -17 -17 -18 -18 -18 -18 -18 -18 -19 -19 -19 -19 -20

GFSWCAN_925_temp_117.txt.gz
Temp
1 1 2 1 2 2 3 3 3 3 2 3 3 3 3 3 3 3 4 4 5 6 8 8 8 8 9 9 9 10 9 9 9 8 9 10 10 11 11 11 10 10 9 10 12 12 12 12 12 9 9 11 8 9
1 1 1 1 1 1 3 3 3 3 3 3 3 3 3 3 3 3 3 4 4 4 6 5 7 7 8 9 8 8 9 7 9 9 9 9 8 10 10 9 9 8 8 8 9 10 8 7 6 8 8 8 7 9
1 1 1 1 1 2 2 3 2 3 3 2 3 3 2 2 2 3 3 4 3 4 5 7 7 7 6 6 7 7 9 9 8 7 7 8 7 10 8 9 8 9 9 8 9 10 6 4 4 5 5 5 5 8
1 1 1 1 1 2 2 2 2 3 2 2 3 2 2 2 2 3 2 3 4 5 4 7 8 8 7 7 6 7 8 8 8 7 7 7 8 10 9 10 8 7 6 7 9 9 7 6 3 3 4 3 4 4
1 1 1 0 1 1 1 2 2 0 1 2 2 2 2 2 2 3 3 3 4 6 4 7 8 8 8 7 7 7 7 7 7 6 6 6 10 10 10 9 7 6 5 6 6 4 4 4 3 2 2 2 2 3
0 0 0 0 1 1 1 2 1 1 1 1 2 2 2 2 2 2 2 2 3 4 5 5 8 9 8 8 7 8 8 7 5 5 5 6 9 9 8 8 5 4 3 3 3 3 3 2 3 2 2 2 2 1
0 0 0 0 1 1 1 1 2 1 1 1 2 2 2 2 2 3 4 4 4 3 3 4 7 8 8 8 7 7 6 5 5 5 6 7 9 8 8 8 7 5 4 3 3 3 3 2 1 1 2 2 2 2
0 0 0 0 0 0 0 1 1 2 1 2 2 2 2 2 2 3 2 2 3 3 5 4 6 7 7 5 4 5 4 4 4 6 8 8 9 9 9 8 7 6 4 4 5 5 3 3 4 3 2 3 4 4
0 0 0 0 0 -0 1 -0 0 0 1 2 1 1 1 1 1 4 2 2 1 2 4 4 6 6 7 6 4 4 5 4 7 5 7 8 8 8 6 6 5 4 4 3 4 5 4 4 4 4 3 1 1 2
0 0 0 0 0 -1 -0 0 0 1 1 1 1 0 1 2 3 2 1 3 2 3 4 4 8 7 8 6 6 5 5 6 6 7 10 7 8 5 4 3 3 3 3 3 3 3 1 1 1 2 2 1 -0 -0
0 0 0 0 0 -0 0 1 0 1 1 1 1 3 3 2 3 4 2 2 3 3 5 6 8 8 9 7 6 7 6 6 7 9 8 8 7 2 3 2 2 2 2 2 1 0 -1 -1 -1 -0 -0 -1 -2 -3
0 0 0 0 -0 -0 1 0 0 1 1 3 3 2 2 4 2 3 3 5 5 7 8 6 6 8 8 9 7 7 6 7 7 10 8 8 2 2 2 1 1 1 0 0 -1 -1 -2 -4 -5 -4 -4 -5 -6 -6
0 0 0 -0 1 1 1 0 1 2 2 3 4 2 2 3 3 3 4 6 6 8 7 6 5 6 7 7 6 5 5 7 9 7 7 3 2 1 1 1 -0 -1 -2 -2 -3 -4 -5 -6 -7 -8 -7 -7 -7 -7
0 0 -1 0 1 1 0 0 2 2 4 5 3 3 4 4 5 7 8 8 7 8 7 5 5 6 7 5 6 6 6 5 7 7 5 3 0 -0 -0 -1 -2 -4 -5 -5 -7 -7 -8 -7 -8 -9 -9 -8 -8 -8
0 1 1 0 1 0 -0 1 2 2 2 3 2 4 4 4 4 3 4 5 4 6 6 6 7 6 6 6 5 7 6 7 5 4 1 -0 -1 -1 -2 -2 -3 -5 -6 -6 -7 -8 -9 -9 -8 -9 -10 -10 -9 -9
1 1 1 1 1 0 0 1 2 1 2 1 1 3 3 4 3 3 3 2 4 4 6 7 6 5 6 7 7 6 7 7 3 2 1 -0 -1 -2 -3 -4 -5 -5 -6 -6 -7 -7 -8 -9 -9 -9 -10 -10 -10 -10
1 1 1 1 0 0 1 1 2 2 2 1 1 0 1 2 2 2 2 1 1 3 5 6 5 6 6 7 6 5 4 2 0 -1 -1 -2 -2 -3 -4 -5 -6 -6 -6 -7 -8 -8 -8 -9 -9 -8 -8 -9 -9 -10
1 0 0 -0 0 1 0 0 2 2 0 1 2 -0 -0 -1 0 -0 -0 -0 1 4 5 5 6 5 5 6 4 1 0 -0 -1 -1 -2 -3 -4 -4 -4 -5 -6 -6 -6 -8 -8 -8 -8 -7 -6 -6 -8 -8 -9 -9
1 0 -0 0 2 1 1 2 3 1 -0 -0 -1 -1 -1 -2 -2 -2 -1 -1 -1 0 2 3 3 4 2 1 0 -0 -0 -1 -2 -2 -4 -5 -5 -6 -6 -6 -6 -6 -7 -7 -7 -7 -7 -9 -8 -8 -7 -7 -7 -8
1 0 0 1 2 3 2 1 2 2 1 -0 -0 -0 -1 -1 -2 -2 -1 -1 0 0 0 0 0 -1 -1 -2 -2 -1 -1 -1 -1 -2 -3 -4 -5 -5 -6 -5 -6 -7 -6 -7 -7 -9 -7 -7 -8 -8 -9 -9 -8 -9
-0 -0 0 1 1 2 3 2 1 1 0 0 -0 1 -1 -0 -1 -1 -1 -0 -0 -1 -1 -2 -3 -4 -4 -4 -4 -4 -4 -3 -2 -2 -2 -3 -4 -5 -5 -6 -6 -6 -6 -6 -6 -7 -8 -7 -8 -9 -9 -10 -10 -10
0 -0 -0 1 1 2 2 2 2 2 1 0 0 1 0 0 -0 -1 -1 -1 -2 -3 -3 -3 -4 -4 -4 -5 -6 -6 -6 -5 -5 -5 -5 -5 -4 -5 -5 -6 -6 -6 -6 -7 -7 -7 -8 -8 -9 -9 -9 -10 -10 -10
0 1 1 0 0 1 0 1 1 1 1 0 1 0 -0 -0 -1 -0 -2 -2 -4 -4 -5 -5 -6 -6 -6 -7 -7 -7 -6 -5 -5 -6 -6 -6 -6 -6 -6 -7 -7 -7 -7 -7 -8 -8 -9 -10 -10 -10 -10 -10 -10 -10
2 -1 0 1 1 1 1 1 2 2 1 1 1 -0 -0 -0 -1 -1 -1 -2 -4 -5 -5 -6 -5 -5 -6 -5 -5 -6 -6 -6 -6 -7 -6 -6 -6 -7 -7 -7 -8 -8 -8 -8 -8 -9 -9 -9 -11 -10 -10 -10 -10 -10
0 -2 -1 -0 1 1 1 1 1 1 1 1 -0 -0 -1 -1 -1 -1 -1 -3 -4 -4 -5 -5 -4 -3 -3 -5 -6 -7 -8 -6 -6 -6 -7 -7 -7 -7 -7 -8 -9 -10 -9 -9 -8 -9 -9 -10 -10 -10 -10 -10 -10 -11
2 -2 0 1 0 2 2 1 1 0 0 0 -0 -1 -1 -1 -1 -1 -1 -3 -4 -4 -5 -4 -4 -4 -4 -4 -5 -6 -8 -8 -7 -7 -8 -8 -8 -8 -7 -7 -8 -9 -11 -11 -10 -9 -9 -9 -10 -10 -10 -11 -12 -11
1 -1 -2 -2 0 0 0 -0 1 1 -0 -1 -1 -2 -1 -1 -0 -2 -3 -3 -3 -5 -5 -5 -4 -4 -5 -6 -8 -9 -9 -9 -9 -9 -10 -10 -11 -11 -10 -10 -10 -12 -12 -12 -11 -11 -10 -10 -10 -10 -10 -10 -11 -11
-2 -1 -2 -3 -2 -2 -1 -0 -0 -0 -0 -0 -0 -2 -1 1 -1 -3 -3 -5 -6 -7 -7 -7 -6 -7 -7 -8 -9 -10 -10 -12 -12 -11 -11 -11 -12 -13 -13 -13 -14 -14 -14 -13 -13 -12 -11 -11 -11 -11 -11 -11 -11 -12
-3 -3 -4 -7 -5 -4 -4 -2 -2 -3 -4 -2 -1 -3 -5 -6 -7 -7 -7 -7 -8 -8 -9 -9 -10 -11 -11 -11 -11 -10 -10 -10 -9 -10 -9 -8 -9 -11 -14 -14 -13 -14 -13 -13 -13 -13 -13 -13 -13 -12 -12 -12 -12 -13
-5 -4 -4 -7 -6 -4 -5 -6 -6 -7 -6 -6 -6 -7 -7 -9 -10 -10 -8 -8 -7 -7 -8 -9 -10 -10 -10 -10 -11 -12 -13 -13 -13 -11 -9 -9 -10 -14 -14 -14 -14 -15 -15 -14 -13 -13 -14 -13 -13 -13 -13 -13 -13 -13
-5 -4 -5 -5 -6 -6 -8 -9 -9 -8 -8 -7 -6 -5 -7 -9 -10 -10 -9 -8 -8 -9 -10 -10 -10 -10 -10 -10 -10 -11 -12 -15 -15 -15 -14 -15 -15 -15 -15 -16 -16 -16 -15 -15 -14 -14 -13 -13 -13 -13 -13 -14 -15 -14
-5 -5 -6 -6 -7 -9 -8 -7 -6 -6 -7 -6 -8 -8 -9 -7 -7 -9 -11 -11 -10 -9 -9 -10 -10 -11 -11 -13 -14 -13 -13 -16 -16 -17 -16 -16 -16 -17 -17 -17 -17 -16 -16 -15 -15 -15 -14 -14 -14 -14 -14 -15 -16 -16
-6 -6 -6 -6 -7 -8 -7 -6 -6 -7 -6 -6 -6 -6 -6 -5 -6 -8 -12 -11 -9 -9 -10 -10 -11 -13 -15 -15 -15 -16 -17 -17 -16 -16 -17 -17 -17 -17 -17 -17 -16 -17 -16 -16 -16 -16 -15 -15 -15 -16 -16 -17 -17 -18

GFSWCAN_925_temp_120.txt.gz
Temp
1 1 2 2 2 3 4 3 4 4 4 3 3 2 3 3 3 3 5 5 6 6 8 9 10 9 10 10 9 10 10 10 9 9 9 10 9 10 10 11 10 10 9 10 9 11 10 6 9 8 7 7 6 5
1 1 1 1 1 2 3 3 4 4 3 3 3 3 3 3 3 3 4 4 5 5 6 6 7 7 9 9 9 9 9 8 10 9 9 9 9 10 10 9 9 8 7 8 8 8 6 6 4 4 5 5 5 4
1 1 1 1 1 1 1 2 3 3 3 3 3 3 3 3 3 3 3 4 4 5 6 7 8 8 8 7 8 7 9 10 9 9 7 8 7 10 9 9 8 10 9 7 9 7 6 5 4 3 3 3 4 3
1 1 1 1 1 1 1 1 2 3 3 3 2 3 3 3 3 3 3 3 5 6 5 8 9 9 9 8 8 8 8 8 8 8 7 7 7 10 9 10 10 8 8 7 8 8 6 7 3 3 3 2 2 3
1 1 1 1 1 1 1 1 1 2 3 3 2 3 3 2 3 3 3 3 5 6 5 6 8 9 9 8 8 8 8 8 8 7 6 6 9 9 10 10 9 7 6 6 6 4 3 5 3 2 3 2 2 2
1 1 1 1 1 1 1 1 2 2 3 2 2 2 2 2 2 3 2 3 4 5 5 5 8 9 9 9 9 8 8 8 7 6 7 8 9 8 8 9 6 6 4 3 4 3 3 3 3 2 2 2 2 1
0 1 1 1 1 1 1 1 2 2 2 1 1 2 2 2 2 4 4 4 4 4 4 5 7 10 9 9 9 8 8 7 7 6 6 7 8 8 8 8 6 6 5 4 4 4 4 2 2 1 2 3 3 3
0 0 1 0 0 0 1 1 1 1 1 1 1 2 2 2 2 3 3 4 4 4 5 4 6 5 9 7 6 7 6 6 5 6 7 8 9 8 7 8 7 6 5 6 6 6 5 4 5 4 3 2 3 2
0 0 0 0 0 0 1 1 1 1 1 1 1 2 1 1 2 2 2 3 3 3 4 5 5 6 8 6 5 5 6 5 7 5 7 8 8 7 7 7 6 5 5 5 5 6 5 4 4 4 3 1 1 0
1 1 0 0 0 0 0 1 1 1 0 1 1 0 1 1 2 2 2 4 2 4 5 4 7 5 7 7 6 6 5 6 6 7 9 7 8 5 5 4 4 4 4 4 3 2 2 1 1 1 1 0 -1 -2
0 0 0 0 0 -0 0 1 1 0 0 1 1 2 4 3 3 3 2 3 4 3 6 6 7 7 8 7 6 6 6 6 6 9 8 8 7 3 3 3 3 3 3 2 2 1 -0 -2 -2 -1 -2 -3 -4 -4
0 0 0 0 0 -1 -0 -0 -0 0 1 4 3 2 3 4 3 3 3 5 5 6 8 6 7 8 9 9 7 7 7 7 7 9 8 8 2 3 2 2 2 1 1 1 -1 -1 -3 -4 -5 -4 -5 -6 -6 -6
0 0 0 0 -0 -1 -1 -0 1 3 3 4 5 2 3 4 3 3 4 5 6 8 7 7 5 7 8 8 6 6 6 7 8 7 7 3 1 1 1 1 -0 -1 -2 -3 -3 -4 -5 -6 -7 -8 -7 -7 -7 -7
0 0 0 0 -0 -0 1 2 3 4 5 5 3 2 3 4 5 6 7 8 8 8 8 7 5 6 7 6 6 5 6 6 7 7 4 2 1 -0 -1 -1 -2 -4 -6 -5 -6 -7 -8 -7 -8 -8 -9 -8 -8 -8
0 0 0 -0 0 0 1 2 3 4 4 4 4 4 5 5 4 4 5 5 6 7 7 6 6 7 5 5 6 7 6 7 6 3 2 0 -1 -1 -2 -2 -3 -5 -5 -6 -7 -8 -9 -9 -8 -9 -9 -9 -9 -9
0 -0 0 1 0 0 1 2 3 3 3 2 2 2 3 4 3 4 3 3 4 5 7 7 7 6 6 7 7 7 7 6 3 1 0 -0 -2 -2 -3 -4 -5 -5 -5 -6 -7 -7 -8 -9 -8 -8 -9 -9 -10 -10
-0 0 0 0 0 0 2 3 4 4 3 2 2 1 1 2 2 1 2 1 1 3 5 7 6 7 5 7 6 4 3 2 1 -0 -1 -2 -2 -3 -4 -4 -5 -5 -6 -6 -7 -7 -8 -8 -8 -7 -7 -8 -9 -9
1 0 0 -0 0 2 2 3 4 4 2 2 2 1 1 0 1 1 0 0 1 4 5 5 7 6 6 5 4 1 0 -0 -0 -1 -2 -3 -3 -4 -4 -5 -5 -6 -6 -7 -7 -7 -7 -7 -6 -6 -7 -7 -8 -8
1 0 1 2 3 3 3 3 4 3 1 1 -0 -0 -0 -1 -0 -0 -0 -0 1 2 3 4 4 5 3 1 1 0 0 -0 -2 -3 -3 -4 -5 -5 -5 -5 -6 -6 -7 -7 -6 -6 -7 -8 -7 -7 -7 -7 -7 -8
0 0 1 2 3 4 3 2 3 1 1 1 1 0 0 -0 -1 -0 -0 1 2 2 2 2 1 -1 -0 -1 -1 -1 -1 -1 -1 -3 -3 -4 -5 -5 -5 -5 -5 -6 -6 -7 -7 -7 -6 -7 -7 -8 -9 -9 -8 -9
0 1 2 2 2 4 3 3 2 2 1 1 1 1 -0 0 0 0 0 1 1 0 -0 -1 -3 -3 -3 -3 -3 -2 -3 -3 -3 -2 -2 -4 -4 -4 -5 -5 -5 -5 -5 -6 -6 -7 -7 -7 -8 -8 -9 -9 -9 -10
0 1 1 2 2 3 3 3 3 3 2 1 1 2 1 1 0 0 1 0 -1 -2 -1 -2 -3 -4 -4 -5 -5 -5 -5 -4 -4 -4 -4 -4 -4 -4 -5 -5 -5 -5 -6 -6 -7 -7 -7 -8 -9 -9 -9 -9 -9 -10
1 2 2 2 1 2 1 3 2 2 1 1 1 1 1 1 0 1 -0 -1 -2 -3 -3 -4 -5 -5 -5 -6 -6 -5 -5 -4 -4 -4 -4 -5 -5 -5 -6 -6 -6 -6 -6 -7 -7 -7 -8 -9 -9 -9 -9 -9 -9 -9
1 -0 1 2 2 1 1 2 3 3 2 1 2 1 1 1 0 1 0 -1 -3 -4 -4 -5 -4 -5 -5 -4 -4 -5 -5 -5 -5 -5 -5 -5 -5 -6 -6 -7 -7 -8 -8 -7 -7 -8 -8 -9 -9 -9 -9 -9 -9 -9
2 0 1 1 2 1 1 2 2 2 2 2 2 1 0 0 0 1 0 -2 -3 -4 -4 -4 -3 -3 -3 -4 -5 -6 -7 -5 -5 -6 -6 -6 -6 -6 -6 -7 -8 -9 -9 -9 -8 -8 -8 -9 -9 -9 -9 -10 -10 -10
2 -1 0 2 2 2 3 2 2 2 2 2 1 1 0 1 0 1 1 -2 -3 -3 -4 -3 -3 -2 -3 -3 -4 -5 -6 -6 -5 -6 -7 -7 -7 -7 -7 -6 -7 -10 -10 -10 -10 -9 -9 -9 -9 -9 -9 -10 -11 -11
1 0 0 0 2 2 2 2 3 2 1 1 1 -0 -0 -0 1 -0 -2 -2 -3 -4 -4 -3 -3 -2 -3 -6 -6 -7 -8 -8 -8 -8 -9 -9 -10 -10 -10 -10 -10 -12 -12 -11 -11 -11 -10 -10 -10 -9 -9 -10 -10 -11
0 1 -1 -1 0 1 1 2 1 2 2 2 1 -0 0 1 0 -2 -3 -4 -4 -5 -5 -5 -4 -5 -5 -7 -8 -9 -9 -10 -10 -10 -10 -10 -11 -12 -12 -12 -13 -13 -13 -12 -12 -12 -12 -11 -11 -10 -10 -11 -11 -11
-1 -1 -2 -4 -2 -1 -0 0 1 -0 -2 -0 1 0 -2 -5 -5 -5 -5 -5 -5 -6 -6 -7 -8 -8 -8 -8 -9 -9 -9 -9 -8 -8 -8 -8 -10 -12 -12 -13 -13 -13 -13 -12 -13 -13 -13 -13 -13 -12 -12 -12 -12 -12
-2 -1 -2 -4 -4 -2 -3 -4 -4 -5 -4 -4 -4 -6 -6 -7 -8 -8 -7 -7 -7 -7 -7 -8 -9 -9 -9 -9 -10 -10 -11 -11 -11 -9 -8 -8 -11 -13 -13 -13 -13 -14 -14 -13 -13 -13 -13 -13 -12 -13 -12 -12 -13 -13
-2 -2 -2 -2 -3 -4 -6 -7 -7 -6 -6 -5 -5 -4 -6 -8 -9 -8 -7 -7 -7 -7 -8 -8 -8 -8 -9 -8 -9 -10 -11 -13 -13 -13 -13 -13 -13 -13 -14 -15 -15 -14 -14 -14 -14 -13 -13 -13 -12 -12 -13 -14 -14 -14
-3 -2 -4 -4 -5 -7 -7 -6 -6 -5 -6 -6 -6 -7 -8 -7 -7 -8 -9 -8 -8 -8 -8 -8 -8 -9 -9 -11 -11 -11 -10 -14 -15 -14 -14 -14 -14 -15 -15 -15 -15 -15 -15 -14 -14 -14 -14 -13 -13 -14 -13 -14 -16 -16
-4 -4 -4 -4 -6 -7 -6 -5 -5 -5 -5 -4 -5 -6 -5 -4 -5 -7 -9 -9 -8 -8 -8 -9 -9 -11 -12 -13 -13 -14 -15 -15 -15 -15 -15 -15 -16 -16 -15 -15 -15 -15 -15 -15 -15 -15 -15 -15 -15 -15 -16 -17 -17 -17

GFSWCAN_925_temp_126.txt.gz
Temp
2 2 2 2 3 3 4 4 4 3 4 4 4 4 4 4 4 5 4 4 5 2 3 5 5 4 4 3 4 5 4 4 3 3 3 3 5 7 6 7 7 5 6 3 5 6 5 4 6 5 3 3 4 3
1 1 2 2 3 3 3 3 3 3 4 4 4 4 4 4 4 4 4 4 5 2 3 5 6 6 6 6 3 3 4 5 4 3 4 4 5 2 6 4 6 4 4 4 4 4 5 4 3 3 3 3 3 3
1 1 1 1 2 2 2 3 3 3 3 4 4 4 4 3 3 4 4 4 5 0 1 3 4 7 7 7 8 3 3 5 4 2 1 1 3 2 3 3 3 6 7 3 4 4 4 4 4 3 3 2 2 2
1 1 1 1 2 2 2 3 3 3 4 3 4 4 3 3 3 3 4 4 4 1 -1 2 6 6 8 7 7 8 6 5 4 2 1 0 2 4 2 4 2 2 3 2 4 5 4 3 3 2 3 3 2 2
1 1 1 1 2 2 2 3 3 3 3 3 4 3 3 3 2 3 3 3 4 2 1 2 4 7 8 8 7 7 6 3 2 1 -0 1 3 4 3 3 0 3 2 2 2 4 3 4 2 2 2 2 2 1
1 1 1 1 2 1 1 2 2 3 3 2 3 3 3 3 3 3 -1 3 3 3 -0 -0 3 6 7 8 6 5 5 2 1 1 0 2 4 3 1 3 5 3 3 1 2 4 4 3 2 2 0 1 1 0
1 1 1 1 1 1 1 2 2 2 3 3 3 3 3 3 3 2 1 3 4 4 -1 -0 2 4 7 6 4 3 4 2 2 2 1 2 3 4 1 3 5 4 3 2 1 2 1 -1 -1 -1 0 0 0 -0
1 1 1 1 1 1 1 1 2 2 3 3 2 2 2 3 3 3 3 4 3 4 0 -1 1 3 6 1 3 2 2 3 3 2 1 2 3 2 3 5 5 4 4 4 4 4 2 -0 -0 -1 -1 -0 -1 -2
1 1 1 1 1 1 1 1 1 2 2 2 2 1 1 2 1 2 3 3 4 3 -1 -2 -0 -0 3 2 2 1 1 1 2 0 1 2 3 3 5 5 3 4 3 2 1 1 0 -1 -1 -2 -3 -3 -3 -3
1 1 0 0 1 1 1 1 1 2 0 -0 0 -0 -0 1 2 3 3 -1 -2 -2 -1 -1 0 -0 3 1 -1 1 -1 0 1 2 3 3 4 2 2 1 1 0 0 1 1 -1 -2 -2 -3 -4 -4 -4 -4 -5
1 1 0 0 0 1 1 1 2 0 -0 0 0 1 1 2 2 1 1 -3 -3 1 0 0 1 1 3 3 -0 -1 1 1 3 4 4 4 3 1 -0 -1 -1 -2 -2 -3 -3 -4 -5 -5 -5 -5 -5 -6 -6 -7
1 1 1 0 0 1 1 1 0 1 2 2 2 1 1 2 -1 -2 -0 -1 1 2 1 -0 0 1 1 3 1 1 2 2 3 4 4 3 0 -1 -2 -3 -3 -3 -3 -4 -4 -5 -6 -6 -7 -7 -7 -8 -8 -8
1 1 0 1 1 0 1 0 1 2 2 4 2 -0 -0 -2 0 1 -0 1 -2 0 0 -0 -0 1 2 3 3 0 1 1 2 3 1 -1 -1 -2 -3 -4 -4 -5 -5 -6 -6 -6 -7 -8 -9 -8 -9 -9 -8 -9
1 1 1 1 1 0 1 0 0 3 3 1 0 0 -3 -2 -1 -0 0 0 0 -1 0 2 0 2 1 2 2 3 1 -0 -0 4 2 -2 -2 -2 -4 -4 -5 -6 -7 -7 -8 -8 -9 -9 -9 -9 -9 -9 -9 -10
1 1 0 0 -0 0 0 -0 0 1 3 0 -1 -3 -2 -3 -2 0 -0 -2 0 -1 2 3 2 2 2 2 5 5 4 4 2 2 -4 -3 -3 -3 -4 -5 -6 -7 -8 -9 -9 -9 -9 -9 -9 -9 -10 -10 -9 -10
0 -0 -0 -0 0 0 1 0 0 2 1 -1 -1 -1 -3 -0 1 2 -0 1 0 2 2 2 3 3 1 1 5 5 3 3 1 -3 -3 -3 -4 -5 -6 -7 -7 -7 -8 -8 -9 -9 -9 -9 -9 -9 -9 -9 -9 -10
0 0 -0 -0 0 0 -0 0 1 2 -0 0 -1 -5 -3 -1 0 -2 0 -0 -1 2 4 2 3 3 2 1 3 1 -1 -3 -3 -3 -6 -6 -6 -8 -8 -7 -7 -8 -8 -8 -8 -8 -8 -8 -8 -8 -9 -8 -9 -9
0 -0 -0 -1 -1 -1 0 2 0 -0 -1 -3 -2 -5 -5 -5 -4 -5 -1 -1 0 1 1 3 2 3 -1 2 1 -2 -3 -5 -6 -6 -8 -9 -7 -7 -6 -7 -7 -7 -7 -8 -7 -8 -8 -8 -8 -9 -8 -8 -9 -9
-0 -0 -1 0 1 1 -1 1 1 -1 -3 -4 -5 -6 -5 -7 -8 -6 -4 -1 -1 -1 -1 1 1 -2 -3 -4 -4 -4 -5 -7 -5 -9 -10 -7 -6 -6 -7 -7 -7 -7 -7 -7 -7 -8 -8 -8 -9 -9 -9 -9 -10 -9
0 0 1 1 2 2 1 -0 2 -0 -1 -1 -3 -4 -4 -6 -5 -3 -3 -3 -1 -0 -2 -3 -6 -6 -6 -5 -7 -4 -6 -5 -6 -7 -9 -9 -6 -6 -6 -6 -7 -7 -7 -7 -7 -8 -8 -9 -9 -9 -9 -9 -9 -10
0 1 3 4 3 3 -0 -1 -1 -1 -2 -1 -2 -2 -5 -4 -4 -4 -2 -2 -4 -6 -6 -9 -10 -6 -7 -6 -5 -4 -5 -5 -5 -7 -8 -9 -6 -6 -6 -6 -6 -6 -7 -8 -8 -9 -9 -9 -9 -9 -9 -9 -10 -10
2 4 3 3 1 1 0 0 -0 -1 -1 -1 -2 -1 -4 -4 -4 -5 -3 -5 -8 -8 -8 -10 -10 -10 -8 -9 -6 -5 -5 -4 -4 -5 -5 -6 -9 -8 -7 -6 -7 -8 -7 -8 -8 -9 -9 -9 -9 -9 -9 -10 -10 -10
4 3 2 2 -0 -1 -1 1 -1 -1 -2 -3 -1 -1 -3 -3 -3 -2 -7 -6 -9 -8 -8 -7 -7 -6 -7 -6 -5 -5 -5 -6 -7 -7 -6 -7 -7 -7 -7 -7 -7 -8 -8 -8 -8 -8 -9 -9 -9 -9 -9 -10 -10 -10
3 -0 -0 1 -1 -2 -2 -1 1 0 -1 -1 -1 -0 -1 -2 -3 -5 -4 -10 -10 -8 -9 -9 -7 -9 -7 -7 -9 -7 -6 -5 -7 -7 -6 -7 -9 -8 -8 -8 -8 -8 -8 -8 -8 -9 -9 -9 -9 -9 -10 -10 -10 -10
-0 -2 -3 -2 -2 -2 -1 -1 -1 0 -1 -0 -1 -1 -4 -4 -7 -7 -5 -8 -6 -10 -9 -8 -8 -7 -8 -12 -10 -7 -6 -6 -8 -9 -7 -6 -8 -9 -10 -10 -10 -10 -9 -9 -10 -10 -10 -9 -10 -10 -10 -10 -10 -11
-1 -5 -2 -3 -3 -1 -0 -1 -0 -1 -2 -1 -2 -4 -7 -7 -4 -5 -4 -9 -10 -10 -9 -8 -8 -9 -9 -8 -11 -8 -7 -6 -7 -9 -9 -7 -7 -9 -12 -12 -11 -11 -11 -11 -10 -11 -11 -10 -10 -10 -10 -10 -11 -11
-4 -5 -4 -1 -1 -1 -4 -3 -1 -4 -3 -1 -5 -7 -7 -4 -7 -6 -8 -9 -9 -6 -6 -6 -6 -7 -8 -8 -7 -7 -7 -6 -6 -8 -9 -9 -9 -8 -8 -10 -11 -11 -12 -12 -12 -11 -11 -11 -11 -11 -10 -11 -12 -12
-5 -5 -4 -7 -6 -5 -6 -3 -5 -5 -4 -3 -4 -5 -6 -6 -6 -8 -8 -5 -4 -5 -5 -4 -5 -5 -7 -8 -7 -7 -8 -8 -9 -10 -11 -11 -12 -11 -11 -11 -11 -12 -12 -12 -12 -12 -12 -12 -12 -12 -12 -12 -12 -12
-6 -7 -6 -8 -9 -8 -8 -6 -7 -7 -7 -7 -7 -8 -10 -10 -10 -9 -6 -6 -5 -5 -8 -9 -9 -8 -8 -8 -8 -8 -8 -9 -11 -17 -19 -19 -14 -13 -13 -13 -13 -13 -13 -13 -13 -13 -13 -13 -13 -13 -13 -13 -13 -14
-7 -6 -9 -12 -10 -8 -11 -11 -10 -13 -11 -9 -9 -9 -10 -11 -8 -7 -7 -7 -7 -8 -8 -9 -9 -9 -11 -11 -11 -11 -10 -9 -8 -10 -15 -16 -12 -12 -13 -13 -13 -14 -13 -13 -13 -13 -13 -13 -13 -13 -13 -13 -14 -14
-7 -8 -7 -10 -12 -13 -13 -13 -11 -12 -15 -13 -16 -13 -12 -14 -8 -7 -7 -7 -7 -8 -9 -11 -10 -10 -10 -12 -12 -13 -13 -11 -10 -9 -9 -9 -11 -12 -13 -14 -14 -14 -14 -14 -14 -13 -13 -13 -13 -14 -14 -15 -15 -16
-10 -8 -8 -8 -10 -14 -15 -14 -15 -14 -16 -14 -13 -16 -15 -15 -13 -14 -7 -7 -9 -10 -10 -10 -10 -11 -9 -9 -9 -10 -10 -10 -11 -10 -10 -11 -12 -13 -14 -14 -14 -14 -14 -14 -14 -14 -14 -14 -14 -15 -15 -16 -16 -17
-10 -12 -11 -12 -13 -13 -14 -12 -11 -11 -13 -14 -14 -14 -13 -11 -10 -11 -8 -8 -8 -9 -9 -9 -9 -9 -9 -9 -9 -10 -10 -11 -12 -12 -12 -13 -13 -14 -15 -15 -15 -15 -15 -15 -15 -15 -15 -15 -15 -16 -16 -17 -17 -17

GFSWCAN_925_temp_129.txt.gz
Temp
1 2 2 3 3 4 4 3 3 4 4 4 3 4 4 5 5 6 4 5 5 2 3 5 5 5 4 4 5 5 5 4 3 3 4 3 4 6 6 7 7 5 5 3 4 5 5 4 5 5 3 3 3 3
1 1 2 2 3 4 3 4 4 4 4 3 4 4 4 4 5 6 4 5 6 2 3 4 5 6 6 6 3 2 4 4 4 3 3 3 4 1 5 4 5 4 3 3 4 4 4 4 4 4 3 3 3 2
1 1 2 2 2 3 3 4 4 4 4 4 4 3 3 4 4 5 4 5 5 1 2 4 5 6 7 7 7 3 3 4 3 1 -0 1 3 2 2 3 2 5 5 3 4 4 4 4 4 3 3 3 2 2
1 1 1 2 2 2 3 3 3 3 4 4 4 4 3 4 4 5 5 4 4 0 0 4 5 6 7 7 7 7 5 4 2 1 -0 -0 2 3 2 3 1 2 3 2 4 4 4 4 3 2 2 3 2 2
1 1 1 2 2 2 2 3 3 3 3 4 4 3 3 3 3 4 4 4 4 3 1 3 4 6 7 7 6 6 5 2 1 1 -1 1 2 3 3 2 -1 1 1 1 2 2 2 3 3 2 1 1 2 0
1 1 1 1 2 2 2 2 3 3 3 3 3 3 3 3 3 4 -1 4 4 4 0 1 2 4 5 6 5 4 3 0 0 1 0 2 2 3 0 3 4 4 2 0 1 3 3 3 1 1 0 1 0 -2
1 1 1 1 2 2 2 3 3 3 3 3 3 3 3 3 4 2 1 3 4 4 -1 -1 2 3 5 4 3 2 3 1 1 1 1 2 3 2 0 2 4 3 3 2 1 1 1 -1 -2 -1 -1 -1 -1 -2
1 1 1 1 1 2 2 2 3 3 3 2 2 3 3 3 3 3 3 3 4 3 -0 -2 1 2 4 1 3 1 2 2 2 2 1 2 2 2 2 3 4 3 2 3 3 2 -1 -2 -1 -2 -2 -1 -2 -2
1 0 1 1 1 2 2 1 2 3 3 2 2 2 3 3 1 2 2 3 4 3 -1 -2 0 1 3 1 1 1 1 1 1 0 1 1 2 3 3 4 3 5 4 1 -0 -0 -1 -1 -2 -3 -3 -3 -3 -3
1 1 1 1 1 1 2 2 2 3 3 1 1 1 -0 2 2 3 3 -1 -2 -2 -1 -1 -1 -1 3 -0 -1 -2 -1 -0 -1 1 1 1 3 1 0 0 -0 -1 1 1 0 -0 -1 -3 -3 -4 -4 -5 -5 -5
1 1 1 1 1 1 1 1 2 2 1 1 -0 -0 1 2 3 -2 -0 -3 -4 -1 -1 0 -0 1 2 1 -0 -2 0 1 2 3 2 3 2 0 -1 -2 -2 -2 -3 -3 -4 -4 -5 -4 -4 -4 -5 -5 -7 -7
1 1 0 0 1 1 0 0 1 1 0 1 2 1 2 1 -1 -2 -4 -2 0 2 -0 -1 -1 0 2 3 2 1 1 2 3 3 4 2 -2 -3 -2 -3 -4 -3 -4 -4 -5 -5 -6 -6 -6 -7 -7 -8 -9 -9
1 1 0 0 0 0 1 0 1 1 2 3 2 0 -0 -2 -1 -2 -1 1 -1 -1 -1 -1 -1 -0 1 2 1 0 2 2 1 2 1 -2 -2 -3 -3 -4 -4 -5 -5 -5 -6 -6 -7 -8 -9 -9 -9 -9 -9 -9
1 1 0 0 0 0 0 -0 0 2 3 1 1 0 -3 -1 -2 -1 -0 -0 -1 -2 -1 0 -1 0 -1 2 3 2 0 3 -1 0 2 -2 -3 -3 -4 -4 -5 -6 -7 -7 -8 -8 -9 -9 -10 -10 -10 -10 -10 -10
1 1 0 0 0 -0 -0 0 1 3 2 0 0 -2 -1 -4 -4 -4 -3 -3 -1 -3 0 0 1 0 0 0 2 3 3 4 1 2 -4 -5 -3 -4 -5 -5 -6 -8 -9 -10 -10 -10 -10 -9 -9 -10 -10 -10 -10 -10
1 0 -0 0 0 0 -0 -0 0 1 -0 -1 -1 -1 -1 0 0 1 1 1 1 0 -1 0 3 1 3 1 4 4 2 -1 -1 -3 -3 -3 -4 -5 -6 -7 -8 -8 -8 -9 -9 -9 -9 -9 -9 -9 -9 -9 -10 -10
0 -0 -0 0 0 -0 -1 -0 0 1 0 -0 -1 -3 -1 -7 -2 -4 -0 1 -0 -0 -0 3 1 3 1 1 4 2 -1 -5 -3 -3 -7 -6 -7 -8 -8 -8 -8 -8 -8 -8 -8 -8 -8 -8 -8 -8 -8 -9 -9 -9
-0 -0 -0 0 -0 -1 -1 -0 -1 -1 -2 -2 -4 -3 -7 -7 -6 -5 -3 -2 -1 0 1 3 2 3 -1 2 -1 -4 -4 -5 -5 -8 -9 -10 -8 -8 -7 -8 -8 -8 -8 -8 -8 -8 -8 -8 -8 -9 -9 -9 -9 -9
-0 -0 -0 0 0 0 -1 0 0 -1 -3 -6 -4 -6 -8 -6 -4 -5 -7 -4 -2 -1 -0 0 -3 -2 -1 -5 -4 -9 -6 -9 -6 -11 -13 -8 -7 -7 -7 -7 -7 -8 -8 -8 -8 -8 -8 -9 -9 -9 -9 -9 -9 -10
0 1 1 1 1 0 1 -1 1 -2 -4 -2 -5 -6 -7 -8 -8 -8 -8 -4 -1 -1 -2 -3 -4 -6 -5 -9 -10 -8 -8 -7 -6 -7 -10 -12 -7 -7 -7 -7 -7 -8 -8 -8 -8 -8 -9 -9 -9 -9 -9 -9 -10 -10
-0 -0 0 0 0 1 -1 -2 -2 -3 -3 -4 -4 -3 -6 -5 -3 -2 -2 -2 -2 -7 -6 -10 -12 -6 -7 -6 -5 -6 -6 -5 -6 -8 -8 -10 -8 -6 -7 -7 -7 -7 -7 -8 -9 -9 -9 -9 -9 -9 -9 -10 -10 -10
1 -0 0 0 0 0 -1 -1 -2 -2 -2 -3 -3 -2 -6 -5 -6 -7 -4 -4 -7 -9 -10 -11 -7 -7 -7 -8 -7 -5 -5 -5 -5 -6 -6 -7 -12 -10 -8 -7 -7 -8 -8 -8 -8 -9 -9 -9 -9 -9 -10 -10 -10 -10
2 3 2 1 -1 -1 -1 -1 -1 -1 -2 -3 -1 -3 -6 -5 -4 -2 -8 -7 -10 -11 -10 -10 -9 -7 -8 -7 -6 -6 -5 -5 -8 -8 -7 -7 -7 -6 -6 -7 -7 -8 -8 -8 -8 -8 -9 -9 -10 -10 -10 -10 -10 -10
4 -1 -2 -1 -1 -2 -2 -2 0 -0 -2 -2 -2 -2 -2 -3 -4 -6 -6 -11 -12 -9 -11 -11 -8 -8 -7 -7 -10 -8 -7 -6 -8 -8 -7 -8 -9 -9 -7 -8 -8 -8 -8 -8 -9 -9 -9 -9 -10 -10 -10 -10 -10 -10
-0 -2 -3 -2 -3 -3 -1 -1 -1 -1 -2 -2 -1 -3 -4 -5 -7 -8 -7 -9 -7 -10 -11 -9 -8 -7 -9 -12 -11 -8 -7 -6 -8 -9 -9 -7 -9 -11 -10 -10 -9 -9 -9 -9 -9 -9 -9 -10 -10 -10 -10 -10 -10 -11
-4 -5 -2 -4 -4 -2 -2 -2 -2 -2 -2 -2 -3 -5 -7 -8 -6 -6 -5 -10 -12 -11 -10 -9 -9 -10 -10 -7 -10 -9 -8 -6 -6 -9 -9 -8 -8 -9 -12 -13 -11 -11 -10 -10 -10 -10 -10 -10 -10 -10 -10 -11 -11 -11
-3 -5 -4 -2 -2 -1 -3 -4 -2 -4 -5 -3 -6 -7 -8 -6 -7 -6 -9 -11 -10 -8 -7 -7 -7 -7 -8 -9 -7 -7 -7 -6 -6 -7 -8 -8 -8 -8 -7 -9 -11 -10 -11 -11 -11 -11 -11 -11 -11 -11 -11 -11 -12 -12
-5 -5 -4 -6 -5 -5 -5 -6 -5 -5 -4 -4 -6 -7 -7 -6 -5 -9 -10 -6 -5 -6 -7 -7 -6 -6 -6 -7 -7 -8 -9 -8 -9 -9 -10 -10 -10 -9 -9 -10 -10 -11 -11 -12 -12 -12 -12 -12 -12 -11 -12 -12 -12 -12
-6 -7 -6 -7 -9 -9 -8 -5 -6 -8 -8 -8 -8 -8 -8 -10 -12 -11 -7 -7 -7 -7 -8 -9 -9 -7 -7 -8 -8 -8 -8 -9 -10 -17 -18 -20 -14 -12 -12 -12 -12 -12 -12 -12 -13 -13 -13 -13 -13 -13 -13 -13 -13 -14
-7 -7 -10 -13 -9 -8 -12 -12 -11 -14 -12 -10 -10 -10 -11 -12 -8 -8 -8 -8 -8 -8 -8 -7 -9 -9 -11 -11 -11 -12 -10 -9 -8 -9 -14 -16 -12 -11 -12 -13 -13 -13 -13 -13 -13 -13 -13 -13 -13 -13 -13 -14 -14 -15
-8 -8 -8 -11 -12 -15 -15 -16 -14 -15 -18 -15 -19 -14 -12 -14 -9 -7 -8 -7 -7 -7 -9 -11 -10 -10 -10 -11 -12 -12 -12 -10 -10 -9 -9 -9 -10 -11 -12 -13 -13 -14 -14 -13 -13 -13 -13 -13 -14 -14 -14 -14 -15 -15
-11 -8 -9 -8 -11 -15 -18 -16 -17 -16 -18 -16 -15 -18 -16 -14 -12 -14 -8 -8 -9 -10 -10 -10 -11 -11 -9 -9 -9 -9 -9 -9 -10 -9 -9 -9 -10 -11 -12 -13 -14 -14 -14 -14 -14 -14 -14 -13 -14 -14 -15 -15 -16 -17
-13 -13 -14 -15 -14 -14 -16 -14 -14 -14 -15 -15 -17 -17 -16 -13 -11 -13 -9 -9 -8 -9 -8 -8 -8 -8 -8 -8 -8 -9 -9 -10 -10 -10 -10 -11 -11 -12 -13 -14 -14 -14 -14 -15 -15 -15 -14 -15 -15 -15 -16 -17 -17 -18

GFSWCAN_925_temp_132.txt.gz
Temp
1 1 3 3 3 3 4 3 3 4 3 3 4 4 5 5 7 9 4 6 5 3 3 4 5 5 5 5 6 5 5 5 3 4 5 3 4 6 6 7 7 6 4 2 4 4 5 3 5 6 3 4 3 3
0 2 2 3 3 3 3 3 3 3 4 3 4 4 5 5 6 7 5 6 7 3 3 4 5 5 6 6 3 3 5 4 4 3 3 4 4 2 5 4 4 3 3 4 4 4 4 3 3 4 3 3 3 2
1 1 1 2 3 3 3 3 4 3 4 3 3 4 4 5 6 7 5 6 7 1 3 4 4 6 7 7 7 4 3 4 2 1 1 1 3 2 2 3 2 5 4 3 5 4 3 3 3 3 2 3 3 2
1 1 2 1 3 3 3 4 4 4 4 4 3 3 4 5 6 6 5 5 5 1 2 4 5 5 6 7 8 7 4 3 1 1 1 1 3 3 2 3 1 1 2 1 3 4 3 3 3 2 1 2 2 1
1 1 1 2 1 2 3 4 3 4 4 3 3 3 4 4 5 5 5 4 5 3 2 3 4 5 6 7 6 6 4 2 1 1 0 1 2 3 2 2 -1 1 0 0 0 2 2 3 2 1 0 1 0 0
1 1 1 2 2 2 3 3 3 3 3 3 3 3 3 4 5 6 1 4 5 5 1 2 2 3 4 5 4 3 2 0 0 1 0 1 2 2 0 2 4 1 1 -1 1 2 1 1 0 1 0 0 -1 -3
0 1 1 2 2 3 3 3 3 3 3 3 3 3 3 4 4 1 2 3 4 5 -0 1 3 2 4 3 1 1 2 0 1 0 1 1 2 2 -0 2 4 3 2 1 1 2 1 -1 -3 -2 -1 -1 -2 -3
0 0 1 1 2 2 2 3 3 3 3 3 3 3 3 4 3 2 2 3 4 3 -0 0 2 2 3 1 2 -0 1 1 1 1 -0 2 2 1 2 3 3 2 1 2 1 1 -1 -2 -2 -3 -3 -2 -3 -3
0 0 1 1 1 2 2 2 3 2 2 2 1 3 4 4 1 2 3 4 4 3 -1 -2 1 1 3 0 1 1 1 -1 0 0 2 2 2 2 3 3 2 3 3 1 -0 -0 -1 -2 -2 -3 -3 -4 -3 -4
0 1 1 1 1 1 2 2 3 3 1 1 3 2 -2 2 3 3 4 -0 -1 -2 -1 -1 -1 2 2 1 -1 -1 -0 1 -1 1 1 1 2 -1 -1 -2 -1 -0 1 1 -0 -1 -2 -2 -2 -3 -4 -5 -5 -6
0 1 1 1 1 1 2 2 2 1 0 1 -0 -2 1 2 2 -2 -4 -2 -3 -0 -1 -0 0 2 2 0 -1 -3 -0 1 2 2 1 2 1 -0 -1 -2 -2 -3 -3 -4 -4 -4 -5 -4 -4 -4 -5 -6 -7 -7
0 0 1 1 1 1 2 2 1 1 1 1 1 1 1 -0 -3 -2 -4 -1 0 2 -0 -0 -0 0 2 3 1 -0 2 1 2 2 2 0 -3 -3 -2 -3 -4 -3 -4 -4 -5 -5 -6 -6 -6 -7 -8 -8 -9 -9
0 0 0 0 0 1 2 1 1 1 2 4 2 0 -1 -3 -3 -3 -2 -0 -1 -1 -2 -2 -3 -1 2 2 1 1 2 1 1 1 0 -2 -3 -3 -3 -4 -4 -5 -5 -5 -6 -7 -8 -9 -9 -9 -10 -10 -9 -10
1 0 0 0 0 1 1 0 1 1 3 1 0 -2 -1 -1 -2 -2 -0 -1 -1 -2 -2 -0 -2 -0 0 0 -1 2 -0 2 -0 -1 -1 -5 -3 -4 -4 -5 -6 -7 -7 -8 -8 -8 -9 -10 -10 -10 -10 -10 -10 -10
0 0 0 0 0 1 -0 -0 0 1 0 0 -0 -2 -3 -5 -4 -6 -5 -3 -1 -3 -0 -1 -1 -1 -1 -1 0 2 3 3 1 -1 -5 -8 -4 -4 -5 -6 -8 -9 -11 -11 -10 -10 -10 -10 -10 -10 -10 -10 -10 -10
0 -0 -0 0 0 -0 -1 -0 -0 -0 -1 -0 -1 -1 -2 0 -1 -6 -3 -1 1 -1 -2 -1 1 -0 0 0 3 -1 0 -1 -2 -6 -6 -4 -5 -6 -7 -8 -9 -9 -9 -10 -9 -9 -9 -9 -9 -9 -10 -10 -10 -10
1 -0 0 -0 -1 -1 -1 -0 0 -0 -0 -0 -1 -2 -4 -4 -1 -4 -3 1 -0 -2 -2 -1 -0 1 -1 -0 3 1 -1 -4 -5 -3 -3 -7 -7 -8 -9 -9 -9 -9 -9 -9 -9 -9 -9 -9 -9 -9 -9 -9 -10 -10
-0 -0 -0 -1 -0 -1 -1 -0 -0 -1 -1 -2 -3 -3 -3 -5 -2 -2 -2 -1 0 -0 -1 1 2 1 -2 1 -2 -5 -7 -4 -4 -6 -10 -10 -9 -8 -8 -9 -9 -9 -9 -8 -8 -9 -9 -8 -9 -9 -9 -9 -10 -10
-0 -1 0 -0 0 0 0 -0 0 -2 -3 -3 -3 -5 -6 -3 -4 -4 -3 -3 -2 -2 -0 -0 -2 -1 -2 -5 -7 -9 -6 -7 -6 -10 -14 -9 -8 -8 -8 -8 -8 -8 -8 -8 -8 -8 -9 -9 -9 -9 -10 -9 -9 -10
0 1 0 0 -0 -0 0 -1 -0 -2 -4 -4 -6 -5 -8 -9 -7 -11 -10 -3 -2 -1 -3 0 -2 -5 -6 -10 -11 -10 -8 -8 -7 -8 -10 -13 -8 -7 -8 -8 -8 -8 -8 -8 -8 -9 -9 -9 -9 -10 -10 -10 -10 -11
-1 -0 -1 -0 -0 -0 -2 -3 -2 -3 -4 -4 -5 -4 -8 -7 -7 -7 -6 -3 -1 -1 -3 -8 -9 -8 -7 -5 -7 -6 -7 -5 -6 -8 -8 -10 -10 -8 -8 -8 -8 -8 -8 -9 -9 -9 -9 -9 -9 -10 -10 -10 -10 -11
-0 -0 -0 -0 -1 -1 -2 -2 -2 -2 -4 -5 -5 -4 -8 -7 -8 -6 -4 -4 -5 -8 -10 -12 -10 -7 -5 -6 -8 -6 -6 -6 -6 -7 -7 -8 -12 -11 -10 -8 -8 -9 -8 -8 -8 -8 -9 -9 -10 -10 -10 -10 -10 -10
0 0 -0 -0 -3 -4 -3 -2 -3 -2 -4 -4 -2 -4 -5 -5 -5 -3 -6 -6 -9 -12 -12 -12 -9 -8 -7 -9 -7 -7 -6 -6 -9 -8 -8 -7 -8 -7 -7 -7 -7 -8 -9 -8 -8 -8 -9 -10 -10 -10 -10 -10 -10 -10
0 -2 -3 -3 -2 -3 -3 -2 -0 -1 -2 -2 -2 -3 -2 -5 -5 -6 -6 -10 -12 -9 -10 -12 -8 -7 -7 -8 -11 -9 -7 -6 -8 -8 -7 -8 -10 -9 -7 -7 -7 -7 -7 -8 -8 -9 -9 -9 -10 -10 -10 -10 -10 -10
-1 -2 -3 -3 -3 -1 -1 -1 -2 -2 -4 -4 -3 -4 -4 -5 -7 -8 -8 -9 -9 -7 -11 -8 -8 -9 -9 -13 -11 -9 -8 -6 -9 -10 -9 -7 -9 -11 -10 -9 -9 -8 -8 -8 -9 -9 -9 -10 -10 -10 -10 -10 -11 -11
-2 -3 -2 -4 -3 -1 -2 -3 -2 -3 -4 -4 -4 -6 -7 -8 -7 -7 -6 -10 -12 -12 -11 -8 -10 -11 -11 -8 -10 -10 -8 -7 -7 -9 -9 -7 -7 -8 -11 -12 -11 -10 -9 -9 -9 -9 -10 -10 -10 -10 -10 -11 -11 -11
-3 -4 -4 -2 -2 -1 -3 -4 -2 -3 -4 -5 -6 -8 -7 -6 -7 -6 -10 -11 -11 -9 -7 -7 -7 -7 -8 -9 -8 -7 -7 -7 -6 -7 -7 -8 -7 -7 -7 -9 -10 -9 -9 -10 -10 -10 -11 -11 -11 -11 -11 -11 -11 -12
-6 -5 -4 -6 -5 -5 -5 -6 -5 -4 -5 -5 -6 -5 -5 -5 -4 -9 -10 -7 -6 -7 -8 -7 -6 -5 -6 -7 -7 -8 -8 -8 -8 -8 -9 -10 -10 -9 -9 -9 -9 -9 -10 -11 -11 -12 -12 -12 -12 -11 -12 -12 -12 -12
-7 -8 -6 -7 -8 -8 -7 -6 -7 -8 -9 -7 -7 -7 -8 -9 -12 -11 -7 -7 -8 -8 -9 -9 -9 -7 -8 -8 -8 -7 -8 -8 -10 -15 -17 -19 -13 -11 -10 -10 -10 -11 -11 -12 -12 -13 -13 -13 -12 -13 -13 -13 -13 -13
-8 -8 -9 -12 -8 -6 -10 -11 -11 -15 -13 -11 -11 -10 -11 -12 -8 -8 -8 -9 -9 -9 -9 -8 -9 -9 -12 -12 -12 -12 -10 -9 -7 -8 -13 -15 -12 -10 -11 -11 -12 -12 -13 -13 -13 -13 -13 -13 -13 -13 -13 -14 -14 -14
-8 -8 -9 -12 -12 -15 -16 -18 -17 -17 -20 -17 -20 -14 -12 -15 -10 -8 -9 -9 -8 -8 -9 -10 -11 -9 -10 -11 -12 -13 -13 -10 -9 -9 -8 -8 -9 -10 -11 -12 -12 -13 -13 -13 -13 -13 -13 -13 -14 -14 -14 -14 -15 -15
-11 -8 -7 -7 -10 -14 -18 -17 -19 -17 -20 -17 -16 -20 -17 -15 -12 -15 -10 -10 -9 -10 -10 -10 -10 -10 -8 -8 -8 -8 -7 -7 -9 -9 -9 -9 -9 -10 -11 -12 -13 -13 -14 -14 -14 -14 -14 -13 -14 -14 -15 -15 -15 -16
-14 -15 -17 -16 -14 -14 -17 -16 -15 -15 -17 -16 -18 -20 -19 -16 -12 -15 -11 -11 -10 -9 -8 -8 -8 -8 -8 -8 -8 -8 -8 -8 -9 -9 -9 -9 -10 -11 -12 -13 -13 -14 -14 -14 -14 -14 -14 -14 -14 -15 -15 -16 -16 -17